Time,TemperatureF,DewpointF,PressureIn,WindDirection,WindDirectionDegrees,WindSpeedMPH,WindSpeedGustMPH,Humidity,HourlyPrecipIn,Conditions,Clouds,dailyrainin,SoftwareType,DateUTC
2013-09-16 00:01:00,65.7,61.7,30.07,SW,232,9.0,12.0,87,0.00,,,0.00,LWC V2.10 B1813,2013-09-16 04:01:00,
2013-09-16 00:02:00,65.7,61.7,30.07,South,184,4.0,9.0,87,0.00,,,0.00,LWC V2.10 B1813,2013-09-16 04:02:00,
2013-09-16 00:04:00,65.8,61.8,30.07,WSW,248,6.0,10.0,87,0.00,,,0.00,LWC V2.10 B1813,2013-09-16 04:04:00,
2013-09-16 00:05:00,65.8,61.8,30.07,South,173,7.0,15.0,87,0.00,,,0.00,LWC V2.10 B1813,2013-09-16 04:05:00,
2013-09-16 00:06:00,65.8,61.8,30.07,SSE,153,4.0,15.0,87,0.00,,,0.00,LWC V2.10 B1813,2013-09-16 04:06:00,
2013-09-16 00:11:00,65.9,61.9,30.07,SW,217,7.0,15.0,87,0.00,,,0.00,LWC V2.10 B1813,2013-09-16 04:11:00,
2013-09-16 00:17:00,66.1,62.1,30.07,SSW,200,8.0,14.0,87,0.00,,,0.00,LWC V2.10 B1813,2013-09-16 04:17:00,
2013-09-16 00:22:00,66.0,62.0,30.07,South,182,3.0,10.0,87,0.00,,,0.00,LWC V2.10 B1813,2013-09-16 04:22:00,
2013-09-16 00:27:00,66.1,62.4,30.07,South,170,6.0,11.0,88,0.00,,,0.00,LWC V2.10 B1813,2013-09-16 04:27:00,
2013-09-16 00:30:00,66.1,62.1,30.07,SSW,194,7.0,14.0,87,0.00,,,0.00,LWC V2.10 B1813,2013-09-16 04:30:00,
2013-09-16 00:32:00,66.1,62.4,30.07,SSW,211,7.0,13.0,88,0.00,,,0.00,LWC V2.10 B1813,2013-09-16 04:32:00,
2013-09-16 00:38:00,66.1,62.4,30.07,SE,137,1.0,11.0,88,0.00,,,0.00,LWC V2.10 B1813,2013-09-16 04:38:00,
2013-09-16 00:40:00,66.1,62.4,30.07,SSW,193,6.0,14.0,88,0.00,,,0.00,LWC V2.10 B1813,2013-09-16 04:40:00,
2013-09-16 00:50:00,68.0,63.0,29.80,SSW,202,6.0,13.0,84,0.00,,,0.00,LWC V2.10 B1813,2013-09-16 04:50:00,
2013-09-16 01:00:00,68.0,63.0,29.80,SSW,202,6.0,13.0,84,0.00,,,0.00,LWC V2.10 B1813,2013-09-16 05:00:00,
2013-09-16 01:10:00,68.0,63.0,29.80,SSW,202,6.0,13.0,84,0.00,,,0.00,LWC V2.10 B1813,2013-09-16 05:10:00,
2013-09-16 01:20:00,68.0,63.0,29.80,SSW,202,6.0,13.0,84,0.00,,,0.00,LWC V2.10 B1813,2013-09-16 05:20:00,
2013-09-16 01:30:00,68.0,63.0,29.80,SSW,202,6.0,13.0,84,0.00,,,0.00,LWC V2.10 B1813,2013-09-16 05:30:00,
2013-09-16 01:40:00,68.0,63.0,29.80,SSW,202,6.0,13.0,84,0.00,,,0.00,LWC V2.10 B1813,2013-09-16 05:40:00,
2013-09-16 01:50:00,68.0,63.0,29.80,SSW,202,6.0,13.0,84,0.00,,,0.00,LWC V2.10 B1813,2013-09-16 05:50:00,
2013-09-16 02:00:00,68.0,63.0,29.80,SSW,202,6.0,13.0,84,0.00,,,0.00,LWC V2.10 B1813,2013-09-16 06:00:00,
2013-09-16 02:10:00,68.0,63.0,29.80,SSW,202,6.0,13.0,84,0.00,,,0.00,LWC V2.10 B1813,2013-09-16 06:10:00,
2013-09-16 02:20:00,68.0,63.0,29.80,SSW,202,6.0,13.0,84,0.00,,,0.00,LWC V2.10 B1813,2013-09-16 06:20:00,
2013-09-16 02:30:00,68.0,63.0,29.80,SSW,202,6.0,13.0,84,0.00,,,0.00,LWC V2.10 B1813,2013-09-16 06:30:00,
2013-09-16 02:40:00,68.0,63.0,29.80,SSW,202,6.0,13.0,84,0.00,,,0.00,LWC V2.10 B1813,2013-09-16 06:40:00,
2013-09-16 02:50:00,68.0,63.0,29.80,SSW,202,6.0,13.0,84,0.00,,,0.00,LWC V2.10 B1813,2013-09-16 06:50:00,
2013-09-16 03:00:00,68.0,63.0,29.80,SSW,202,6.0,13.0,84,0.00,,,0.00,LWC V2.10 B1813,2013-09-16 07:00:00,
2013-09-16 03:10:00,68.0,63.0,29.80,SSW,202,6.0,13.0,84,0.00,,,0.00,LWC V2.10 B1813,2013-09-16 07:10:00,
2013-09-16 03:20:00,68.0,63.0,29.80,SSW,202,6.0,13.0,84,0.00,,,0.00,LWC V2.10 B1813,2013-09-16 07:20:00,
2013-09-16 03:30:00,68.0,63.0,29.80,SSW,202,6.0,13.0,84,0.00,,,0.00,LWC V2.10 B1813,2013-09-16 07:30:00,
2013-09-16 03:40:00,68.0,63.0,29.80,SSW,202,6.0,13.0,84,0.00,,,0.00,LWC V2.10 B1813,2013-09-16 07:40:00,
2013-09-16 03:50:00,68.0,63.0,29.80,SSW,202,6.0,13.0,84,0.00,,,0.00,LWC V2.10 B1813,2013-09-16 07:50:00,
2013-09-16 04:00:00,68.0,63.0,29.80,SSW,202,6.0,13.0,84,0.00,,,0.00,LWC V2.10 B1813,2013-09-16 08:00:00,
2013-09-16 04:10:00,68.0,63.0,29.80,SSW,202,6.0,13.0,84,0.00,,,0.00,LWC V2.10 B1813,2013-09-16 08:10:00,
2013-09-16 04:20:00,68.0,63.0,29.80,SSW,202,6.0,13.0,84,0.00,,,0.00,LWC V2.10 B1813,2013-09-16 08:20:00,
2013-09-16 04:30:00,68.0,63.0,29.80,SSW,202,6.0,13.0,84,0.00,,,0.00,LWC V2.10 B1813,2013-09-16 08:30:00,
2013-09-16 04:40:00,68.0,63.0,29.80,SSW,202,6.0,13.0,84,0.00,,,0.00,LWC V2.10 B1813,2013-09-16 08:40:00,
2013-09-16 04:50:00,68.0,63.0,29.80,SSW,202,6.0,13.0,84,0.00,,,0.00,LWC V2.10 B1813,2013-09-16 08:50:00,
2013-09-16 05:00:00,68.0,63.0,29.80,SSW,202,6.0,13.0,84,0.00,,,0.00,LWC V2.10 B1813,2013-09-16 09:00:00,
2013-09-16 05:10:00,68.0,63.0,29.80,SSW,202,6.0,13.0,84,0.00,,,0.00,LWC V2.10 B1813,2013-09-16 09:10:00,
2013-09-16 05:20:00,68.0,63.0,29.80,SSW,202,6.0,13.0,84,0.00,,,0.00,LWC V2.10 B1813,2013-09-16 09:20:00,
2013-09-16 05:30:00,68.0,63.0,29.80,SSW,202,6.0,13.0,84,0.00,,,0.00,LWC V2.10 B1813,2013-09-16 09:30:00,
2013-09-16 05:40:00,68.0,63.0,29.80,SSW,202,6.0,13.0,84,0.00,,,0.00,LWC V2.10 B1813,2013-09-16 09:40:00,
2013-09-16 05:50:00,68.0,63.0,29.80,SSW,202,6.0,13.0,84,0.00,,,0.00,LWC V2.10 B1813,2013-09-16 09:50:00,
2013-09-16 06:06:00,62.2,60.1,30.03,WSW,239,2.0,4.0,93,0.00,,,0.00,LWC V2.10 B1813,2013-09-16 10:06:00,
2013-09-16 06:11:00,62.3,60.2,30.03,WSW,254,3.0,5.0,93,0.00,,,0.00,LWC V2.10 B1813,2013-09-16 10:11:00,
2013-09-16 06:16:00,62.5,60.7,30.04,SW,231,0.0,4.0,94,0.00,,,0.00,LWC V2.10 B1813,2013-09-16 10:16:00,
2013-09-16 06:21:00,62.6,60.5,30.04,WSW,256,4.0,5.0,93,0.00,,,0.00,LWC V2.10 B1813,2013-09-16 10:21:00,
2013-09-16 06:27:00,62.8,60.7,30.04,SW,214,3.0,7.0,93,0.00,,,0.00,LWC V2.10 B1813,2013-09-16 10:27:00,
2013-09-16 06:32:00,62.9,60.5,30.04,SW,221,4.0,9.0,92,0.00,,,0.00,LWC V2.10 B1813,2013-09-16 10:32:00,
2013-09-16 06:37:00,63.0,60.3,30.04,SSW,203,6.0,7.0,91,0.00,,,0.00,LWC V2.10 B1813,2013-09-16 10:37:00,
2013-09-16 06:42:00,63.1,60.4,30.04,SSW,213,2.0,7.0,91,0.00,,,0.00,LWC V2.10 B1813,2013-09-16 10:42:00,
2013-09-16 06:48:00,63.1,60.4,30.04,SSW,210,1.0,6.0,91,0.00,,,0.00,LWC V2.10 B1813,2013-09-16 10:48:00,
2013-09-16 06:53:00,63.2,60.5,30.04,West,281,0.0,6.0,91,0.00,,,0.00,LWC V2.10 B1813,2013-09-16 10:53:00,
2013-09-16 06:58:00,63.2,60.2,30.04,WSW,238,0.0,4.0,90,0.00,,,0.00,LWC V2.10 B1813,2013-09-16 10:58:00,
2013-09-16 07:03:00,63.1,60.1,30.04,SW,226,0.0,3.0,90,0.00,,,0.00,LWC V2.10 B1813,2013-09-16 11:03:00,
2013-09-16 07:09:00,63.0,60.0,30.04,WSW,240,1.0,3.0,90,0.00,,,0.00,LWC V2.10 B1813,2013-09-16 11:09:00,
2013-09-16 07:14:00,63.0,60.0,30.04,WSW,240,0.0,4.0,90,0.00,,,0.00,LWC V2.10 B1813,2013-09-16 11:14:00,
2013-09-16 07:19:00,62.9,59.9,30.04,WSW,240,1.0,1.0,90,0.00,,,0.00,LWC V2.10 B1813,2013-09-16 11:19:00,
2013-09-16 07:24:00,62.9,59.9,30.04,SW,235,0.0,4.0,90,0.00,,,0.00,LWC V2.10 B1813,2013-09-16 11:24:00,
2013-09-16 07:30:00,62.9,59.9,30.04,SW,236,0.0,0.0,90,0.00,,,0.00,LWC V2.10 B1813,2013-09-16 11:30:00,
2013-09-16 07:35:00,63.0,60.0,30.04,WSW,240,0.0,3.0,90,0.00,,,0.00,LWC V2.10 B1813,2013-09-16 11:35:00,
2013-09-16 07:40:00,63.1,60.1,30.04,WSW,248,2.0,5.0,90,0.00,,,0.00,LWC V2.10 B1813,2013-09-16 11:40:00,
2013-09-16 07:45:00,63.1,60.1,30.04,WSW,242,0.0,1.0,90,0.00,,,0.00,LWC V2.10 B1813,2013-09-16 11:45:00,
2013-09-16 07:51:00,63.1,60.1,30.04,WSW,242,0.0,4.0,90,0.00,,,0.00,LWC V2.10 B1813,2013-09-16 11:51:00,
2013-09-16 07:56:00,63.2,60.2,30.04,SW,224,4.0,4.0,90,0.00,,,0.00,LWC V2.10 B1813,2013-09-16 11:56:00,
2013-09-16 08:01:00,63.2,60.5,30.04,SW,229,0.0,2.0,91,0.00,,,0.00,LWC V2.10 B1813,2013-09-16 12:01:00,
2013-09-16 08:06:00,63.4,60.7,30.04,WSW,238,2.0,3.0,91,0.00,,,0.00,LWC V2.10 B1813,2013-09-16 12:06:00,
2013-09-16 08:12:00,63.5,60.8,30.04,SSW,207,1.0,4.0,91,0.00,,,0.00,LWC V2.10 B1813,2013-09-16 12:12:00,
2013-09-16 08:17:00,63.4,60.7,30.04,SSW,202,0.0,1.0,91,0.00,,,0.00,LWC V2.10 B1813,2013-09-16 12:17:00,
2013-09-16 08:22:00,63.5,60.8,30.04,West,273,0.0,4.0,91,0.00,,,0.00,LWC V2.10 B1813,2013-09-16 12:22:00,
2013-09-16 08:27:00,63.6,61.2,30.04,WSW,254,4.0,4.0,92,0.00,,,0.00,LWC V2.10 B1813,2013-09-16 12:27:00,
2013-09-16 08:33:00,63.6,61.2,30.04,South,187,0.0,4.0,92,0.00,,,0.00,LWC V2.10 B1813,2013-09-16 12:33:00,
2013-09-16 08:38:00,63.5,61.1,30.03,SW,219,2.0,3.0,92,0.00,,,0.00,LWC V2.10 B1813,2013-09-16 12:38:00,
2013-09-16 08:43:00,63.5,61.1,30.03,SW,228,2.0,5.0,92,0.00,,,0.00,LWC V2.10 B1813,2013-09-16 12:43:00,
2013-09-16 08:48:00,63.5,61.4,30.03,WSW,242,0.0,0.0,93,0.00,,,0.00,LWC V2.10 B1813,2013-09-16 12:48:00,
2013-09-16 08:54:00,63.6,61.5,30.04,SW,236,3.0,6.0,93,0.00,,,0.00,LWC V2.10 B1813,2013-09-16 12:54:00,
2013-09-16 08:59:00,63.8,61.7,30.03,SW,221,3.0,9.0,93,0.00,,,0.00,LWC V2.10 B1813,2013-09-16 12:59:00,
2013-09-16 09:04:00,64.0,61.6,30.04,South,183,8.0,9.0,92,0.00,,,0.00,LWC V2.10 B1813,2013-09-16 13:04:00,
2013-09-16 09:09:00,64.1,61.7,30.04,SSW,198,6.0,7.0,92,0.00,,,0.00,LWC V2.10 B1813,2013-09-16 13:09:00,
2013-09-16 09:15:00,64.1,61.7,30.03,SSW,196,5.0,9.0,92,0.00,,,0.00,LWC V2.10 B1813,2013-09-16 13:15:00,
2013-09-16 09:20:00,64.3,61.9,30.03,SSW,202,3.0,6.0,92,0.00,,,0.00,LWC V2.10 B1813,2013-09-16 13:20:00,
2013-09-16 09:25:00,64.3,61.9,30.04,SSW,202,3.0,7.0,92,0.00,,,0.00,LWC V2.10 B1813,2013-09-16 13:25:00,
2013-09-16 09:30:00,64.3,61.9,30.04,South,182,2.0,7.0,92,0.00,,,0.00,LWC V2.10 B1813,2013-09-16 13:30:00,
2013-09-16 09:36:00,64.4,62.0,30.04,SSW,194,2.0,7.0,92,0.00,,,0.00,LWC V2.10 B1813,2013-09-16 13:36:00,
2013-09-16 09:41:00,64.3,61.9,30.04,SW,229,1.0,7.0,92,0.00,,,0.00,LWC V2.10 B1813,2013-09-16 13:41:00,
2013-09-16 09:46:00,64.2,61.8,30.04,SW,226,2.0,7.0,92,0.00,,,0.00,LWC V2.10 B1813,2013-09-16 13:46:00,
2013-09-16 09:51:00,63.8,61.1,30.05,WSW,258,1.0,9.0,91,0.00,,,0.00,LWC V2.10 B1813,2013-09-16 13:51:00,
2013-09-16 09:57:00,63.6,60.9,30.04,North,355,6.0,6.0,91,0.00,,,0.00,LWC V2.10 B1813,2013-09-16 13:57:00,
2013-09-16 10:02:00,63.2,59.9,30.05,WNW,298,0.0,9.0,89,0.00,,,0.00,LWC V2.10 B1813,2013-09-16 14:02:00,
2013-09-16 10:07:00,62.9,59.3,30.04,NNW,338,10.0,12.0,88,0.00,,,0.00,LWC V2.10 B1813,2013-09-16 14:07:00,
2013-09-16 10:12:00,62.6,58.7,30.05,NNW,338,3.0,10.0,87,0.00,,,0.00,LWC V2.10 B1813,2013-09-16 14:12:00,
2013-09-16 10:18:00,62.3,58.1,30.06,NNW,340,7.0,7.0,86,0.00,,,0.00,LWC V2.10 B1813,2013-09-16 14:18:00,
2013-09-16 10:23:00,62.1,57.9,30.06,NW,312,7.0,10.0,86,0.00,,,0.00,LWC V2.10 B1813,2013-09-16 14:23:00,
2013-09-16 10:28:00,61.9,58.0,30.06,NNW,327,3.0,8.0,87,0.00,,,0.00,LWC V2.10 B1813,2013-09-16 14:28:00,
2013-09-16 10:33:00,61.7,57.8,30.06,NNW,337,3.0,6.0,87,0.00,,,0.00,LWC V2.10 B1813,2013-09-16 14:33:00,
2013-09-16 10:39:00,61.8,57.9,30.06,NW,319,4.0,6.0,87,0.00,,,0.00,LWC V2.10 B1813,2013-09-16 14:39:00,
2013-09-16 10:44:00,61.9,58.0,30.06,North,355,2.0,6.0,87,0.00,,,0.00,LWC V2.10 B1813,2013-09-16 14:44:00,
2013-09-16 10:49:00,62.4,58.5,30.06,NW,325,0.0,3.0,87,0.00,,,0.00,LWC V2.10 B1813,2013-09-16 14:49:00,
2013-09-16 10:54:00,62.6,58.3,30.06,NNW,331,3.0,6.0,86,0.00,,,0.00,LWC V2.10 B1813,2013-09-16 14:54:00,
2013-09-16 11:00:00,62.9,58.6,30.06,NNW,346,5.0,9.0,86,0.00,,,0.00,LWC V2.10 B1813,2013-09-16 15:00:00,
2013-09-16 11:05:00,63.0,58.4,30.06,WNW,288,3.0,9.0,85,0.00,,,0.00,LWC V2.10 B1813,2013-09-16 15:05:00,
2013-09-16 11:10:00,62.9,58.3,30.07,West,275,6.0,11.0,85,0.00,,,0.00,LWC V2.10 B1813,2013-09-16 15:10:00,
2013-09-16 11:15:00,62.7,57.8,30.06,NW,322,6.0,11.0,84,0.00,,,0.00,LWC V2.10 B1813,2013-09-16 15:15:00,
2013-09-16 11:21:00,62.8,57.9,30.05,NW,308,1.0,7.0,84,0.00,,,0.00,LWC V2.10 B1813,2013-09-16 15:21:00,
2013-09-16 11:26:00,62.9,58.0,30.06,NNW,339,8.0,8.0,84,0.00,,,0.00,LWC V2.10 B1813,2013-09-16 15:26:00,
2013-09-16 11:31:00,62.7,57.5,30.06,WNW,300,1.0,8.0,83,0.00,,,0.00,LWC V2.10 B1813,2013-09-16 15:31:00,
2013-09-16 11:36:00,62.5,57.6,30.06,NNE,31,6.0,8.0,84,0.00,,,0.00,LWC V2.10 B1813,2013-09-16 15:36:00,
2013-09-16 11:42:00,62.5,58.2,30.06,NNW,329,2.0,5.0,86,0.00,,,0.00,LWC V2.10 B1813,2013-09-16 15:42:00,
2013-09-16 11:47:00,62.2,57.6,30.06,NNW,333,2.0,4.0,85,0.00,,,0.00,LWC V2.10 B1813,2013-09-16 15:47:00,
2013-09-16 11:52:00,62.2,58.0,30.06,West,280,0.0,6.0,86,0.00,,,0.00,LWC V2.10 B1813,2013-09-16 15:52:00,
2013-09-16 11:57:00,62.0,57.8,30.06,NNW,327,1.0,4.0,86,0.00,,,0.00,LWC V2.10 B1813,2013-09-16 15:57:00,
2013-09-16 12:03:00,62.0,57.8,30.05,NW,306,6.0,8.0,86,0.00,,,0.00,LWC V2.10 B1813,2013-09-16 16:03:00,
2013-09-16 12:08:00,62.0,57.4,30.05,NW,306,3.0,5.0,85,0.00,,,0.00,LWC V2.10 B1813,2013-09-16 16:08:00,
2013-09-16 12:13:00,62.2,58.0,30.05,NW,320,0.0,4.0,86,0.00,,,0.00,LWC V2.10 B1813,2013-09-16 16:13:00,
2013-09-16 12:18:00,62.6,58.3,30.06,NW,305,3.0,5.0,86,0.00,,,0.00,LWC V2.10 B1813,2013-09-16 16:18:00,
2013-09-16 12:24:00,62.7,58.1,30.06,NW,316,2.0,6.0,85,0.00,,,0.00,LWC V2.10 B1813,2013-09-16 16:24:00,
2013-09-16 12:29:00,62.8,57.9,30.05,NW,306,1.0,5.0,84,0.00,,,0.00,LWC V2.10 B1813,2013-09-16 16:29:00,
2013-09-16 12:34:00,62.9,58.0,30.05,WNW,292,3.0,7.0,84,0.00,,,0.00,LWC V2.10 B1813,2013-09-16 16:34:00,
2013-09-16 12:39:00,63.2,58.6,30.05,WNW,290,0.0,4.0,85,0.00,,,0.00,LWC V2.10 B1813,2013-09-16 16:39:00,
2013-09-16 12:45:00,63.4,58.5,30.05,NW,323,3.0,7.0,84,0.00,,,0.00,LWC V2.10 B1813,2013-09-16 16:45:00,
2013-09-16 12:50:00,63.5,58.2,30.05,NNW,342,3.0,6.0,83,0.00,,,0.00,LWC V2.10 B1813,2013-09-16 16:50:00,
2013-09-16 12:55:00,63.4,57.8,30.05,NW,320,5.0,5.0,82,0.00,,,0.00,LWC V2.10 B1813,2013-09-16 16:55:00,
2013-09-16 13:00:00,63.7,58.4,30.04,NW,321,3.0,6.0,83,0.00,,,0.00,LWC V2.10 B1813,2013-09-16 17:00:00,
2013-09-16 13:06:00,63.9,57.9,30.04,NW,308,7.0,7.0,81,0.00,,,0.00,LWC V2.10 B1813,2013-09-16 17:06:00,
2013-09-16 13:11:00,64.0,57.7,30.04,NW,307,2.0,5.0,80,0.00,,,0.00,LWC V2.10 B1813,2013-09-16 17:11:00,
2013-09-16 13:16:00,64.5,57.8,30.04,WNW,298,0.0,5.0,79,0.00,,,0.00,LWC V2.10 B1813,2013-09-16 17:16:00,
2013-09-16 13:21:00,65.0,58.7,30.04,NW,319,0.0,1.0,80,0.00,,,0.00,LWC V2.10 B1813,2013-09-16 17:21:00,
2013-09-16 13:27:00,65.2,58.2,30.03,West,281,0.0,4.0,78,0.00,,,0.00,LWC V2.10 B1813,2013-09-16 17:27:00,
2013-09-16 13:32:00,65.6,57.8,30.03,NW,317,4.0,4.0,76,0.00,,,0.00,LWC V2.10 B1813,2013-09-16 17:32:00,
2013-09-16 13:37:00,65.8,57.3,30.04,WNW,301,3.0,7.0,74,0.00,,,0.00,LWC V2.10 B1813,2013-09-16 17:37:00,
2013-09-16 13:42:00,66.0,57.5,30.04,WNW,299,4.0,6.0,74,0.00,,,0.00,LWC V2.10 B1813,2013-09-16 17:42:00,
2013-09-16 13:48:00,66.1,56.4,30.04,NW,314,4.0,9.0,71,0.00,,,0.00,LWC V2.10 B1813,2013-09-16 17:48:00,
2013-09-16 13:53:00,66.2,55.7,30.04,WNW,294,1.0,10.0,69,0.00,,,0.00,LWC V2.10 B1813,2013-09-16 17:53:00,
2013-09-16 13:59:00,66.6,56.1,30.03,NW,307,3.0,6.0,69,0.00,,,0.00,LWC V2.10 B1813,2013-09-16 17:59:00,
2013-09-16 14:04:00,67.1,56.6,30.03,WNW,299,3.0,6.0,69,0.00,,,0.00,LWC V2.10 B1813,2013-09-16 18:04:00,
2013-09-16 14:09:00,67.7,56.3,30.03,NNW,330,4.0,7.0,67,0.00,,,0.00,LWC V2.10 B1813,2013-09-16 18:09:00,
2013-09-16 14:14:00,68.0,56.2,30.03,NW,307,4.0,7.0,66,0.00,,,0.00,LWC V2.10 B1813,2013-09-16 18:14:00,
2013-09-16 14:20:00,67.6,57.1,30.03,NW,304,2.0,6.0,69,0.00,,,0.00,LWC V2.10 B1813,2013-09-16 18:20:00,
2013-09-16 14:25:00,67.2,56.7,30.03,West,265,4.0,12.0,69,0.00,,,0.00,LWC V2.10 B1813,2013-09-16 18:25:00,
2013-09-16 14:30:00,67.4,58.0,30.03,West,277,4.0,5.0,72,0.00,,,0.00,LWC V2.10 B1813,2013-09-16 18:30:00,
2013-09-16 14:35:00,67.1,57.0,30.04,West,275,7.0,8.0,70,0.00,,,0.00,LWC V2.10 B1813,2013-09-16 18:35:00,
2013-09-16 14:41:00,66.7,57.4,30.03,North,355,7.0,12.0,72,0.00,,,0.00,LWC V2.10 B1813,2013-09-16 18:41:00,
2013-09-16 14:46:00,66.6,57.7,30.04,WNW,282,6.0,8.0,73,0.00,,,0.00,LWC V2.10 B1813,2013-09-16 18:46:00,
2013-09-16 14:51:00,66.9,58.3,30.04,WSW,239,5.0,7.0,74,0.00,,,0.00,LWC V2.10 B1813,2013-09-16 18:51:00,
2013-09-16 14:56:00,66.8,58.2,30.03,WSW,255,0.0,5.0,74,0.00,,,0.00,LWC V2.10 B1813,2013-09-16 18:56:00,
2013-09-16 15:02:00,66.8,58.2,30.03,NNW,333,3.0,4.0,74,0.00,,,0.00,LWC V2.10 B1813,2013-09-16 19:02:00,
2013-09-16 15:07:00,67.1,58.9,30.03,West,276,2.0,7.0,75,0.00,,,0.00,LWC V2.10 B1813,2013-09-16 19:07:00,
2013-09-16 15:12:00,67.4,58.4,30.03,WNW,288,7.0,8.0,73,0.00,,,0.00,LWC V2.10 B1813,2013-09-16 19:12:00,
2013-09-16 15:17:00,67.3,58.3,30.03,WSW,249,2.0,6.0,73,0.00,,,0.00,LWC V2.10 B1813,2013-09-16 19:17:00,
2013-09-16 15:23:00,67.5,58.5,30.03,WNW,296,0.0,6.0,73,0.00,,,0.00,LWC V2.10 B1813,2013-09-16 19:23:00,
2013-09-16 15:28:00,67.7,58.3,30.03,NNW,329,2.0,8.0,72,0.00,,,0.00,LWC V2.10 B1813,2013-09-16 19:28:00,
2013-09-16 15:33:00,67.9,58.5,30.03,WNW,288,3.0,5.0,72,0.00,,,0.00,LWC V2.10 B1813,2013-09-16 19:33:00,
2013-09-16 15:38:00,68.4,59.4,30.03,WNW,301,5.0,7.0,73,0.00,,,0.00,LWC V2.10 B1813,2013-09-16 19:38:00,
2013-09-16 15:44:00,68.3,58.5,30.03,NNW,346,4.0,6.0,71,0.00,,,0.00,LWC V2.10 B1813,2013-09-16 19:44:00,
2013-09-16 15:49:00,68.3,58.5,30.02,WNW,302,0.0,7.0,71,0.00,,,0.00,LWC V2.10 B1813,2013-09-16 19:49:00,
2013-09-16 15:54:00,68.4,58.6,30.02,NNE,17,1.0,7.0,71,0.00,,,0.00,LWC V2.10 B1813,2013-09-16 19:54:00,
2013-09-16 15:59:00,69.0,59.6,30.02,NW,311,2.0,5.0,72,0.00,,,0.00,LWC V2.10 B1813,2013-09-16 19:59:00,
2013-09-16 16:05:00,69.3,58.7,30.02,NW,323,4.0,7.0,69,0.00,,,0.00,LWC V2.10 B1813,2013-09-16 20:05:00,
2013-09-16 16:10:00,69.0,58.4,30.02,NW,322,1.0,4.0,69,0.00,,,0.00,LWC V2.10 B1813,2013-09-16 20:10:00,
2013-09-16 16:15:00,68.6,58.4,30.03,WNW,288,1.0,2.0,70,0.00,,,0.00,LWC V2.10 B1813,2013-09-16 20:15:00,
2013-09-16 16:20:00,68.3,58.5,30.03,WNW,294,4.0,4.0,71,0.00,,,0.00,LWC V2.10 B1813,2013-09-16 20:20:00,
2013-09-16 16:26:00,67.7,58.3,30.03,WNW,294,0.0,4.0,72,0.00,,,0.00,LWC V2.10 B1813,2013-09-16 20:26:00,
2013-09-16 16:31:00,67.5,58.1,30.03,WNW,295,2.0,4.0,72,0.00,,,0.00,LWC V2.10 B1813,2013-09-16 20:31:00,
2013-09-16 16:36:00,67.8,58.8,30.03,WNW,294,0.0,0.0,73,0.00,,,0.00,LWC V2.10 B1813,2013-09-16 20:36:00,
2013-09-16 16:41:00,68.0,59.0,30.03,WNW,294,0.0,2.0,73,0.00,,,0.00,LWC V2.10 B1813,2013-09-16 20:41:00,
2013-09-16 16:47:00,68.5,59.5,30.03,WNW,294,0.0,1.0,73,0.00,,,0.00,LWC V2.10 B1813,2013-09-16 20:47:00,
2013-09-16 16:52:00,68.8,59.4,30.03,NW,310,0.0,4.0,72,0.00,,,0.00,LWC V2.10 B1813,2013-09-16 20:52:00,
2013-09-16 16:57:00,68.9,59.1,30.03,WNW,286,4.0,4.0,71,0.00,,,0.00,LWC V2.10 B1813,2013-09-16 20:57:00,
2013-09-16 17:02:00,68.1,58.7,30.03,West,281,2.0,3.0,72,0.00,,,0.00,LWC V2.10 B1813,2013-09-16 21:02:00,
2013-09-16 17:08:00,68.2,58.8,30.04,SW,223,0.0,5.0,72,0.00,,,0.00,LWC V2.10 B1813,2013-09-16 21:08:00,
2013-09-16 17:13:00,68.8,59.8,30.04,SW,223,0.0,1.0,73,0.00,,,0.00,LWC V2.10 B1813,2013-09-16 21:13:00,
2013-09-16 17:18:00,69.5,60.5,30.04,SW,223,0.0,0.0,73,0.00,,,0.00,LWC V2.10 B1813,2013-09-16 21:18:00,
2013-09-16 17:23:00,69.8,59.6,30.04,SW,223,0.0,2.0,70,0.00,,,0.00,LWC V2.10 B1813,2013-09-16 21:23:00,
2013-09-16 17:29:00,69.4,60.0,30.04,SW,222,0.0,3.0,72,0.00,,,0.00,LWC V2.10 B1813,2013-09-16 21:29:00,
2013-09-16 17:34:00,69.4,60.0,30.04,SW,222,0.0,1.0,72,0.00,,,0.00,LWC V2.10 B1813,2013-09-16 21:34:00,
2013-09-16 17:39:00,69.1,59.7,30.04,SW,222,0.0,0.0,72,0.00,,,0.00,LWC V2.10 B1813,2013-09-16 21:39:00,
2013-09-16 17:44:00,68.9,59.9,30.04,SW,222,0.0,0.0,73,0.00,,,0.00,LWC V2.10 B1813,2013-09-16 21:44:00,
2013-09-16 17:50:00,68.5,60.3,30.04,SW,222,0.0,0.0,75,0.00,,,0.00,LWC V2.10 B1813,2013-09-16 21:50:00,
2013-09-16 17:55:00,68.2,60.0,30.04,SW,223,1.0,2.0,75,0.00,,,0.00,LWC V2.10 B1813,2013-09-16 21:55:00,
2013-09-16 18:01:00,67.4,58.0,30.05,WNW,300,7.0,7.0,72,0.00,,,0.00,LWC V2.10 B1813,2013-09-16 22:01:00,
2013-09-16 18:06:00,66.9,57.2,30.05,NNW,329,6.0,10.0,71,0.00,,,0.00,LWC V2.10 B1813,2013-09-16 22:06:00,
2013-09-16 18:11:00,66.3,54.2,30.05,ESE,110,4.0,6.0,65,0.00,,,0.00,LWC V2.10 B1813,2013-09-16 22:11:00,
2013-09-16 18:16:00,66.4,54.3,30.05,ESE,108,4.0,4.0,65,0.00,,,0.00,LWC V2.10 B1813,2013-09-16 22:16:00,
2013-09-16 18:22:00,66.4,54.3,30.05,SE,132,2.0,6.0,65,0.00,,,0.00,LWC V2.10 B1813,2013-09-16 22:22:00,
2013-09-16 18:27:00,66.3,54.2,30.05,ESE,121,1.0,4.0,65,0.00,,,0.00,LWC V2.10 B1813,2013-09-16 22:27:00,
2013-09-16 18:32:00,66.2,54.5,30.05,ESE,115,2.0,7.0,66,0.00,,,0.00,LWC V2.10 B1813,2013-09-16 22:32:00,
2013-09-16 18:37:00,66.2,54.5,30.06,ESE,111,6.0,7.0,66,0.00,,,0.00,LWC V2.10 B1813,2013-09-16 22:37:00,
2013-09-16 18:43:00,66.0,53.9,30.06,East,97,5.0,6.0,65,0.00,,,0.00,LWC V2.10 B1813,2013-09-16 22:43:00,
2013-09-16 18:48:00,65.8,54.1,30.06,ESE,110,2.0,5.0,66,0.00,,,0.00,LWC V2.10 B1813,2013-09-16 22:48:00,
2013-09-16 18:53:00,65.6,54.3,30.06,ESE,109,5.0,5.0,67,0.00,,,0.00,LWC V2.10 B1813,2013-09-16 22:53:00,
2013-09-16 18:58:00,65.5,54.7,30.06,ESE,121,1.0,6.0,68,0.00,,,0.00,LWC V2.10 B1813,2013-09-16 22:58:00,
2013-09-16 19:04:00,65.4,54.6,30.06,ESE,106,4.0,6.0,68,0.00,,,0.00,LWC V2.10 B1813,2013-09-16 23:04:00,
2013-09-16 19:09:00,65.4,54.6,30.06,ESE,115,5.0,6.0,68,0.00,,,0.00,LWC V2.10 B1813,2013-09-16 23:09:00,
2013-09-16 19:14:00,65.3,54.1,30.07,ESE,112,4.0,12.0,67,0.00,,,0.00,LWC V2.10 B1813,2013-09-16 23:14:00,
2013-09-16 19:19:00,65.4,54.6,30.07,ESE,111,7.0,7.0,68,0.00,,,0.00,LWC V2.10 B1813,2013-09-16 23:19:00,
2013-09-16 19:25:00,65.3,54.1,30.07,SE,140,1.0,6.0,67,0.00,,,0.00,LWC V2.10 B1813,2013-09-16 23:25:00,
2013-09-16 19:31:00,65.3,54.1,30.07,ESE,110,7.0,13.0,67,0.00,,,0.00,LWC V2.10 B1813,2013-09-16 23:31:00,
2013-09-16 19:36:00,65.3,54.1,30.07,East,98,6.0,13.0,67,0.00,,,0.00,LWC V2.10 B1813,2013-09-16 23:36:00,
2013-09-16 19:42:00,65.2,54.4,30.08,East,92,6.0,8.0,68,0.00,,,0.00,LWC V2.10 B1813,2013-09-16 23:42:00,
2013-09-16 19:47:00,65.1,53.9,30.08,NNW,331,5.0,10.0,67,0.00,,,0.00,LWC V2.10 B1813,2013-09-16 23:47:00,
2013-09-16 19:52:00,65.0,56.1,30.08,NNW,342,5.0,8.0,73,0.00,,,0.00,LWC V2.10 B1813,2013-09-16 23:52:00,
2013-09-16 19:57:00,64.9,56.0,30.08,NW,311,2.0,12.0,73,0.00,,,0.00,LWC V2.10 B1813,2013-09-16 23:57:00,
2013-09-16 20:03:00,64.8,56.3,30.09,NNW,334,12.0,12.0,74,0.00,,,0.00,LWC V2.10 B1813,2013-09-17 00:03:00,
2013-09-16 20:08:00,64.7,56.2,30.09,WNW,296,2.0,8.0,74,0.00,,,0.00,LWC V2.10 B1813,2013-09-17 00:08:00,
2013-09-16 20:13:00,64.7,56.6,30.09,WNW,288,0.0,8.0,75,0.00,,,0.00,LWC V2.10 B1813,2013-09-17 00:13:00,
2013-09-16 20:18:00,64.6,56.5,30.09,NW,323,0.0,12.0,75,0.00,,,0.00,LWC V2.10 B1813,2013-09-17 00:18:00,
2013-09-16 20:24:00,64.6,56.1,30.10,NW,319,6.0,8.0,74,0.00,,,0.00,LWC V2.10 B1813,2013-09-17 00:24:00,
2013-09-16 20:29:00,64.7,55.5,30.10,North,350,7.0,10.0,72,0.00,,,0.00,LWC V2.10 B1813,2013-09-17 00:29:00,
2013-09-16 20:34:00,64.6,55.4,30.10,NNW,333,5.0,9.0,72,0.00,,,0.00,LWC V2.10 B1813,2013-09-17 00:34:00,
2013-09-16 20:39:00,64.6,55.7,30.10,North,0,3.0,14.0,73,0.00,,,0.00,LWC V2.10 B1813,2013-09-17 00:39:00,
2013-09-16 20:45:00,64.6,56.1,30.11,West,270,0.0,8.0,74,0.00,,,0.00,LWC V2.10 B1813,2013-09-17 00:45:00,
2013-09-16 20:50:00,64.2,56.1,30.11,NNW,331,5.0,14.0,75,0.00,,,0.00,LWC V2.10 B1813,2013-09-17 00:50:00,
2013-09-16 20:55:00,63.9,55.8,30.11,West,275,2.0,16.0,75,0.00,,,0.00,LWC V2.10 B1813,2013-09-17 00:55:00,
2013-09-16 21:00:00,63.8,56.1,30.11,WNW,302,9.0,14.0,76,0.00,,,0.00,LWC V2.10 B1813,2013-09-17 01:00:00,
2013-09-16 21:06:00,63.6,56.3,30.11,West,272,9.0,9.0,77,0.00,,,0.00,LWC V2.10 B1813,2013-09-17 01:06:00,
2013-09-16 21:11:00,63.6,56.6,30.12,NW,304,1.0,11.0,78,0.00,,,0.00,LWC V2.10 B1813,2013-09-17 01:11:00,
2013-09-16 21:16:00,63.4,56.4,30.12,NNW,346,6.0,15.0,78,0.00,,,0.00,LWC V2.10 B1813,2013-09-17 01:16:00,
2013-09-16 21:21:00,63.3,56.7,30.12,NNW,348,3.0,7.0,79,0.00,,,0.00,LWC V2.10 B1813,2013-09-17 01:21:00,
2013-09-16 21:27:00,63.2,56.6,30.13,NNW,338,9.0,14.0,79,0.00,,,0.00,LWC V2.10 B1813,2013-09-17 01:27:00,
2013-09-16 21:32:00,62.9,55.9,30.13,NNW,329,7.0,15.0,78,0.00,,,0.00,LWC V2.10 B1813,2013-09-17 01:32:00,
2013-09-16 21:37:00,62.7,55.4,30.13,NNE,13,11.0,17.0,77,0.00,,,0.00,LWC V2.10 B1813,2013-09-17 01:37:00,
2013-09-16 21:42:00,62.5,55.2,30.13,NNW,327,7.0,18.0,77,0.00,,,0.00,LWC V2.10 B1813,2013-09-17 01:42:00,
2013-09-16 21:48:00,62.3,54.6,30.14,NW,323,8.0,17.0,76,0.00,,,0.00,LWC V2.10 B1813,2013-09-17 01:48:00,
2013-09-16 21:53:00,62.1,54.4,30.14,NNW,340,14.0,14.0,76,0.00,,,0.00,LWC V2.10 B1813,2013-09-17 01:53:00,
2013-09-16 21:58:00,62.0,54.7,30.14,West,277,12.0,12.0,77,0.00,,,0.00,LWC V2.10 B1813,2013-09-17 01:58:00,
2013-09-16 22:03:00,61.9,54.6,30.15,NW,326,6.0,14.0,77,0.00,,,0.00,LWC V2.10 B1813,2013-09-17 02:03:00,
2013-09-16 22:09:00,61.6,53.2,30.15,NNW,333,6.0,17.0,74,0.00,,,0.00,LWC V2.10 B1813,2013-09-17 02:09:00,
2013-09-16 22:14:00,61.4,52.3,30.15,NNW,328,6.0,16.0,72,0.00,,,0.00,LWC V2.10 B1813,2013-09-17 02:14:00,
2013-09-16 22:19:00,61.1,52.0,30.16,WSW,244,7.0,16.0,72,0.00,,,0.00,LWC V2.10 B1813,2013-09-17 02:19:00,
2013-09-16 22:24:00,61.0,51.9,30.16,WNW,282,7.0,13.0,72,0.00,,,0.00,LWC V2.10 B1813,2013-09-17 02:24:00,
2013-09-16 22:30:00,60.7,50.9,30.17,WSW,253,4.0,17.0,70,0.00,,,0.00,LWC V2.10 B1813,2013-09-17 02:30:00,
2013-09-16 22:35:00,60.5,50.7,30.17,NW,322,5.0,19.0,70,0.00,,,0.00,LWC V2.10 B1813,2013-09-17 02:35:00,
2013-09-16 22:40:00,60.3,51.2,30.17,NNW,342,6.0,14.0,72,0.00,,,0.00,LWC V2.10 B1813,2013-09-17 02:40:00,
2013-09-16 22:45:00,60.0,50.9,30.17,NNE,16,10.0,15.0,72,0.00,,,0.00,LWC V2.10 B1813,2013-09-17 02:45:00,
2013-09-16 22:51:00,59.8,50.4,30.17,NNW,340,16.0,16.0,71,0.00,,,0.00,LWC V2.10 B1813,2013-09-17 02:51:00,
2013-09-16 22:56:00,59.6,49.8,30.18,North,355,12.0,15.0,70,0.00,,,0.00,LWC V2.10 B1813,2013-09-17 02:56:00,
2013-09-16 23:02:00,59.5,50.5,30.18,NW,322,8.0,15.0,72,0.00,,,0.00,LWC V2.10 B1813,2013-09-17 03:02:00,
2013-09-16 23:07:00,59.2,49.4,30.18,NNW,336,6.0,14.0,70,0.00,,,0.00,LWC V2.10 B1813,2013-09-17 03:07:00,
2013-09-16 23:12:00,59.0,48.8,30.18,SW,226,7.0,14.0,69,0.00,,,0.00,LWC V2.10 B1813,2013-09-17 03:12:00,
2013-09-16 23:17:00,58.9,49.5,30.19,NNE,12,12.0,16.0,71,0.00,,,0.00,LWC V2.10 B1813,2013-09-17 03:17:00,
2013-09-16 23:23:00,58.7,49.3,30.19,NW,313,5.0,17.0,71,0.00,,,0.00,LWC V2.10 B1813,2013-09-17 03:23:00,
2013-09-16 23:28:00,58.5,49.1,30.19,North,355,5.0,10.0,71,0.00,,,0.00,LWC V2.10 B1813,2013-09-17 03:28:00,
2013-09-16 23:33:00,58.3,49.7,30.19,NNW,345,4.0,16.0,73,0.00,,,0.00,LWC V2.10 B1813,2013-09-17 03:33:00,
2013-09-16 23:38:00,58.2,50.0,30.19,WNW,300,7.0,10.0,74,0.00,,,0.00,LWC V2.10 B1813,2013-09-17 03:38:00,
2013-09-16 23:44:00,57.9,48.9,30.20,WNW,296,7.0,14.0,72,0.00,,,0.00,LWC V2.10 B1813,2013-09-17 03:44:00,
2013-09-16 23:49:00,57.5,48.2,30.20,West,271,4.0,11.0,71,0.00,,,0.00,LWC V2.10 B1813,2013-09-17 03:49:00,
2013-09-16 23:54:00,57.0,47.7,30.20,West,267,4.0,13.0,71,0.00,,,0.00,LWC V2.10 B1813,2013-09-17 03:54:00,
2013-09-16 23:59:00,56.7,47.8,30.20,WNW,302,7.0,13.0,72,0.00,,,0.00,LWC V2.10 B1813,2013-09-17 03:59:00,